CW3847 La Orotava ES current weather conditions

sailwx.info

Wind from 343 at 4 knots gusting 6

Air temperature 21.7° C
Dewpoint 15.7° C

Last reported at 2017-Apr-28 10:05 UTC.
Time now 2017-Apr-28 10:26 UTC

Location: N 28°23' W 016°31'.
View on Google Maps.

See reports from other nearby stations

  
Tides and Currents Weather Stations Pressure Air Temp Water Temp Dewpoint Dewpoint Depression Visibility Wind Speed Wind Dir Waves Ship Positions
date/time (UTC)wind fromknots sea level pressurealtimeterstation pressurevisibilityair tempwater tempwave heightnotes
2017-Apr-28 10:10 340 4 gusting 7 21.7
2017-Apr-28 10:05 343 4 gusting 6 21.7
2017-Apr-28 10:00 332 3 gusting 6 21.7
2017-Apr-28 09:55 326 3 gusting 6 21.7
2017-Apr-28 09:50 340 2 gusting 6 21.7
2017-Apr-28 09:45 019 0 gusting 5 21.7
2017-Apr-28 09:40 037 0 gusting 2 21.7
2017-Apr-28 09:35 037 0 gusting 4 21.1
2017-Apr-28 09:30 011 2 gusting 5 21.1
2017-Apr-28 09:25 346 2 gusting 5 21.1
2017-Apr-28 09:20 357 2 gusting 5 21.1
2017-Apr-28 09:15 011 0 gusting 4 21.1
2017-Apr-28 09:10 357 1 gusting 7 21.1
2017-Apr-28 09:05 009 2 gusting 7 21.1
2017-Apr-28 09:00 164 0 gusting 4 21.1
2017-Apr-28 08:55 169 21.1
2017-Apr-28 08:50 169 21.1
2017-Apr-28 08:45 169 21.1
2017-Apr-28 08:40 169 20.6
2017-Apr-28 08:35 169 20.6
2017-Apr-28 08:30 169 0 gusting 3 20.0
2017-Apr-28 08:25 169 0 gusting 3 20.0
2017-Apr-28 08:20 169 0 gusting 3 19.4
2017-Apr-28 08:15 173 0 gusting 4 19.4
2017-Apr-28 08:10 178 1 gusting 4 19.4
2017-Apr-28 08:05 178 1 gusting 3 18.9
2017-Apr-28 08:00 176 0 gusting 3 18.9
2017-Apr-28 07:55 175 18.3
2017-Apr-28 07:50 175 0 gusting 1 18.3
2017-Apr-28 07:45 175 1 gusting 3 17.8
2017-Apr-28 07:40 174 1 gusting 4 17.2
2017-Apr-28 07:35 173 2 gusting 4 17.2
2017-Apr-28 07:30 173 2 gusting 4 16.7
2017-Apr-28 07:25 174 2 gusting 5 16.7
2017-Apr-28 07:20 172 0 gusting 5 16.7
2017-Apr-28 07:15 172 0 gusting 4 16.7
2017-Apr-28 07:10 173 1 gusting 4 16.7
2017-Apr-28 07:05 173 1 gusting 6 16.7
2017-Apr-28 07:00 172 2 gusting 6 16.7
2017-Apr-28 06:55 171 3 gusting 6 16.7
2017-Apr-28 06:50 165 3 gusting 6 16.7
2017-Apr-28 06:45 162 3 gusting 6 16.7
2017-Apr-28 06:40 162 3 gusting 6 16.7
2017-Apr-28 06:35 161 3 gusting 5 16.7
2017-Apr-28 06:30 163 3 gusting 5 16.7
2017-Apr-28 06:25 170 2 gusting 5 17.2
2017-Apr-28 06:20 175 1 gusting 4 17.2
2017-Apr-28 06:15 177 1 gusting 3 17.2
2017-Apr-28 06:10 176 1 gusting 3 16.7
2017-Apr-28 06:05 175 2 gusting 5 16.7
2017-Apr-28 06:00 176 2 gusting 5 16.7
2017-Apr-28 05:55 178 1 gusting 4 16.7
2017-Apr-28 05:50 181 1 gusting 3 16.7
2017-Apr-28 05:45 186 1 gusting 3 16.7
2017-Apr-28 05:40 191 1 gusting 3 16.7
2017-Apr-28 05:35 192 1 gusting 3 16.7
2017-Apr-28 05:30 192 0 gusting 3 16.7
2017-Apr-28 05:25 190 1 gusting 4 16.7
2017-Apr-28 05:20 189 1 gusting 4 16.7
2017-Apr-28 05:15 188 0 gusting 4 16.7
2017-Apr-28 05:10 186 1 gusting 4 16.7
2017-Apr-28 05:05 185 1 gusting 4 16.7
2017-Apr-28 05:00 184 0 gusting 2 17.2
2017-Apr-28 04:55 185 0 gusting 1 16.7
2017-Apr-28 04:50 185 16.7
2017-Apr-28 04:45 185 0 gusting 1 16.7
2017-Apr-28 04:40 185 1 gusting 3 16.7
2017-Apr-28 04:35 182 2 gusting 4 16.7
2017-Apr-28 04:30 178 2 gusting 5 16.7
2017-Apr-28 04:25 177 1 gusting 5 16.7
2017-Apr-28 04:20 178 0 gusting 2 16.7
2017-Apr-28 04:15 178 0 gusting 2 17.2
2017-Apr-28 04:10 178 0 gusting 2 17.2
2017-Apr-28 04:05 178 1 gusting 2 17.2
2017-Apr-28 04:00 178 1 gusting 2 17.2
2017-Apr-28 03:55 178 1 gusting 3 17.2
2017-Apr-28 03:50 179 1 gusting 3 17.2
2017-Apr-28 03:45 181 2 gusting 4 17.2
2017-Apr-28 03:40 182 1 gusting 4 17.2
2017-Apr-28 03:35 183 1 gusting 4 17.2
2017-Apr-28 03:30 183 1 gusting 4 17.2
2017-Apr-28 03:25 184 1 gusting 3 17.2
2017-Apr-28 03:20 184 1 gusting 3 17.2
2017-Apr-28 03:15 184 0 gusting 3 16.7
2017-Apr-28 03:10 184 1 gusting 3 16.7
2017-Apr-28 03:05 184 1 gusting 3 16.7
2017-Apr-28 03:00 184 0 gusting 3 16.7
2017-Apr-28 02:55 184 0 gusting 2 16.7
2017-Apr-28 02:50 184 1 gusting 4 16.7
2017-Apr-28 02:45 185 1 gusting 4 16.7
2017-Apr-28 02:40 187 1 gusting 3 16.7
2017-Apr-28 02:35 188 1 gusting 2 17.2
2017-Apr-28 02:30 188 1 gusting 3 17.2
2017-Apr-28 02:25 188 1 gusting 3 17.2
2017-Apr-28 02:20 188 0 gusting 2 17.2
2017-Apr-28 02:15 188 0 gusting 3 17.2
2017-Apr-28 02:10 188 0 gusting 3 17.2
2017-Apr-28 02:05 188 17.2
2017-Apr-28 02:00 188 0 gusting 2 17.2
2017-Apr-28 01:55 188 1 gusting 3 17.2
2017-Apr-28 01:50 188 1 gusting 3 17.2
2017-Apr-28 01:45 188 0 gusting 2 17.2
2017-Apr-28 01:40 188 0 gusting 1 17.2
2017-Apr-28 01:35 188 0 gusting 2 17.2
2017-Apr-28 01:30 188 1 gusting 2 17.2
2017-Apr-28 01:25 188 1 gusting 2 17.2
2017-Apr-28 01:20 188 1 gusting 2 17.2
2017-Apr-28 01:15 188 0 gusting 2 17.8
2017-Apr-28 01:10 188 17.8
2017-Apr-28 01:05 188 0 gusting 2 17.8
2017-Apr-28 01:00 188 0 gusting 2 17.8
2017-Apr-28 00:55 189 0 gusting 3 17.8
2017-Apr-28 00:50 189 0 gusting 3 17.8
2017-Apr-28 00:45 190 0 gusting 3 18.3
2017-Apr-28 00:40 189 0 gusting 2 18.3
2017-Apr-28 00:35 188 0 gusting 2 18.3
2017-Apr-28 00:30 186 0 gusting 3 18.3
2017-Apr-28 00:25 186 0 gusting 3 18.3
2017-Apr-28 00:20 186 0 gusting 3 17.8
2017-Apr-28 00:15 186 0 gusting 2 17.8
2017-Apr-28 00:10 184 1 gusting 5 17.8
2017-Apr-28 00:05 181 1 gusting 5 17.8
2017-Apr-28 00:00 178 0 gusting 3 17.8
2017-Apr-27 23:55 179 1 gusting 4 17.8
2017-Apr-27 23:50 179 1 gusting 4 17.8
2017-Apr-27 23:45 181 0 gusting 2 17.8
2017-Apr-27 23:40 181 0 gusting 4 17.8
2017-Apr-27 23:35 179 1 gusting 4 17.8
2017-Apr-27 23:30 177 0 gusting 3 18.3
2017-Apr-27 23:25 178 0 gusting 4 18.3
2017-Apr-27 23:20 179 1 gusting 4 18.3
2017-Apr-27 23:15 181 1 gusting 3 18.3
2017-Apr-27 23:10 181 0 gusting 3 18.3
2017-Apr-27 23:05 181 0 gusting 2 18.3
2017-Apr-27 23:00 181 0 gusting 1 18.3
2017-Apr-27 22:55 181 0 gusting 1 18.3
2017-Apr-27 22:50 179 0 gusting 2 18.3
2017-Apr-27 22:45 179 1 gusting 3 18.3
2017-Apr-27 22:40 177 1 gusting 4 18.3
2017-Apr-27 22:35 175 1 gusting 4 18.3
2017-Apr-27 22:30 174 1 gusting 5 18.3
2017-Apr-27 22:25 186 2 gusting 5 18.3
2017-Apr-27 22:20 200 1 gusting 5 18.3
2017-Apr-27 22:15 208 0 gusting 3 18.3
2017-Apr-27 22:10 208 0 gusting 2 18.3
2017-Apr-27 22:05 211 0 gusting 2 18.3
2017-Apr-27 22:00 211 0 gusting 2 18.3
2017-Apr-27 21:55 212 18.3
2017-Apr-27 21:50 212 18.3
2017-Apr-27 21:45 212 0 gusting 3 18.3
2017-Apr-27 21:40 211 0 gusting 2 18.3
2017-Apr-27 21:35 212 0 gusting 3 18.3
2017-Apr-27 21:30 221 1 gusting 4 18.9
2017-Apr-27 21:25 227 1 gusting 6 18.9
2017-Apr-27 21:20 220 2 gusting 6 18.9
2017-Apr-27 21:15 248 2 gusting 5 18.9
2017-Apr-27 21:10 316 1 gusting 5 18.9
2017-Apr-27 21:05 342 0 gusting 3 18.9
2017-Apr-27 21:00 345 0 gusting 3 18.9
2017-Apr-27 20:55 349 0 gusting 3 18.9
2017-Apr-27 20:50 355 0 gusting 2 18.9
2017-Apr-27 20:45 354 0 gusting 3 19.4
2017-Apr-27 20:40 348 2 gusting 5 19.4
2017-Apr-27 20:35 357 2 gusting 5 19.4
2017-Apr-27 20:30 016 1 gusting 5 19.4
2017-Apr-27 20:25 029 0 gusting 2 19.4
2017-Apr-27 20:20 024 1 gusting 4 19.4
2017-Apr-27 20:15 025 1 gusting 4 19.4
2017-Apr-27 20:10 043 1 gusting 4 19.4
2017-Apr-27 20:05 060 1 gusting 4 19.4
2017-Apr-27 20:00 065 1 gusting 5 19.4
2017-Apr-27 19:55 062 2 gusting 6 19.4
2017-Apr-27 19:50 063 2 gusting 6 20.0
2017-Apr-27 19:45 065 2 gusting 5 20.0
2017-Apr-27 19:40 066 2 gusting 5 20.0
2017-Apr-27 19:35 065 2 gusting 4 20.0
2017-Apr-27 19:30 065 2 gusting 4 20.6
2017-Apr-27 19:25 058 2 gusting 5 20.6
2017-Apr-27 19:20 036 3 gusting 6 21.1
2017-Apr-27 19:15 034 2 gusting 6 21.1
2017-Apr-27 19:10 054 2 gusting 6 21.1
2017-Apr-27 19:05 036 1 gusting 4 21.7
2017-Apr-27 19:00 014 1 gusting 4 21.7
2017-Apr-27 18:55 036 2 gusting 5 21.7
2017-Apr-27 18:50 034 2 gusting 5 21.7
2017-Apr-27 18:45 034 2 gusting 4 21.7
2017-Apr-27 18:40 053 1 gusting 4 21.7
2017-Apr-27 18:35 051 2 gusting 4 21.7
2017-Apr-27 18:30 023 2 gusting 6 21.7
2017-Apr-27 18:25 334 1 gusting 6 21.7
2017-Apr-27 18:20 324 3 gusting 8 21.7
2017-Apr-27 18:15 334 3 gusting 8 21.7
2017-Apr-27 18:10 004 1 gusting 5 21.7
2017-Apr-27 18:05 006 2 gusting 5 21.7
2017-Apr-27 18:00 326 2 gusting 7 22.2
2017-Apr-27 17:55 311 3 gusting 8 22.2
2017-Apr-27 17:50 313 4 gusting 10 21.7
2017-Apr-27 17:45 321 5 gusting 12 22.2
2017-Apr-27 17:40 331 6 gusting 12 22.8
2017-Apr-27 17:35 341 5 gusting 10 22.8
2017-Apr-27 17:30 352 3 gusting 8 22.8
2017-Apr-27 17:25 001 3 gusting 8 22.2
2017-Apr-27 17:20 016 2 gusting 8 22.2
2017-Apr-27 17:15 052 0 gusting 2 21.7
2017-Apr-27 17:10 056 1 gusting 6 21.7
2017-Apr-27 17:05 023 2 gusting 6 21.7
2017-Apr-27 17:00 349 1 gusting 4 21.7
2017-Apr-27 16:55 329 1 gusting 5 21.7
2017-Apr-27 16:50 321 3 gusting 9 21.7
2017-Apr-27 16:45 321 3 gusting 9 21.7
2017-Apr-27 16:40 328 4 gusting 8 21.7
2017-Apr-27 16:35 329 4 gusting 9 21.1
2017-Apr-27 16:30 329 6 gusting 12 21.1
2017-Apr-27 16:25 328 5 gusting 12 21.7
2017-Apr-27 16:20 321 4 gusting 8 21.7
2017-Apr-27 16:15 332 3 gusting 8 21.1
2017-Apr-27 16:10 060 2 gusting 6 21.1
2017-Apr-27 16:05 087 4 gusting 8 20.6
2017-Apr-27 16:00 074 5 gusting 9 21.1
2017-Apr-27 15:55 071 5 gusting 9 20.6
2017-Apr-27 15:50 090 4 gusting 8 20.6
2017-Apr-27 15:45 081 4 gusting 7 20.6
2017-Apr-27 15:40 072 5 gusting 9 20.6
2017-Apr-27 15:30 090 5 gusting 9 21.1
2017-Apr-27 15:25 086 5 gusting 9 21.1
2017-Apr-27 15:20 082 6 gusting 9 21.1
2017-Apr-27 15:15 081 5 gusting 9 21.1
2017-Apr-27 15:10 078 5 gusting 9 21.7
2017-Apr-27 15:05 065 5 gusting 10 21.7
2017-Apr-27 15:00 044 5 gusting 10 22.2
2017-Apr-27 14:55 037 4 gusting 7 22.2
2017-Apr-27 14:50 339 4 gusting 9 22.2
2017-Apr-27 14:45 321 6 gusting 13 22.8
2017-Apr-27 14:35 342 6 gusting 13 23.3
2017-Apr-27 14:30 341 6 gusting 12 23.3
2017-Apr-27 14:25 354 6 gusting 12 23.3
2017-Apr-27 14:20 008 5 gusting 10 23.3
2017-Apr-27 14:15 016 4 gusting 10 22.8
2017-Apr-27 14:10 009 5 gusting 11 22.8
2017-Apr-27 14:05 356 6 gusting 13 22.8
2017-Apr-27 14:00 009 5 gusting 13 23.3
2017-Apr-27 13:55 022 5 gusting 10 22.8
2017-Apr-27 13:50 002 6 gusting 11 22.2
2017-Apr-27 13:45 350 6 gusting 12 22.2
2017-Apr-27 13:40 020 6 gusting 12 22.2
2017-Apr-27 13:35 028 6 gusting 10 22.2
2017-Apr-27 13:30 011 6 gusting 11 22.2
2017-Apr-27 13:25 016 5 gusting 11 22.2
2017-Apr-27 13:20 007 5 gusting 13 22.2
2017-Apr-27 13:15 351 6 gusting 13 22.2
2017-Apr-27 13:10 352 6 gusting 13 22.2
2017-Apr-27 13:05 356 5 gusting 13 22.2
2017-Apr-27 13:00 006 3 gusting 7 21.7
2017-Apr-27 12:55 009 3 gusting 9 21.7
2017-Apr-27 12:50 330 5 gusting 12 22.2
2017-Apr-27 12:45 311 5 gusting 12 22.2
2017-Apr-27 12:40 311 5 gusting 11 22.2
2017-Apr-27 12:35 313 6 gusting 11 22.2
2017-Apr-27 12:30 322 5 gusting 10 22.2
2017-Apr-27 12:25 338 5 gusting 12 22.2
2017-Apr-27 12:20 332 6 gusting 12 22.2
2017-Apr-27 12:15 330 5 gusting 9 22.2
2017-Apr-27 12:10 337 5 gusting 11 22.2
2017-Apr-27 12:05 330 6 gusting 13 22.8
2017-Apr-27 12:00 327 5 gusting 13 22.8
2017-Apr-27 11:55 330 3 gusting 7 22.8
2017-Apr-27 11:50 007 2 gusting 7 22.2
2017-Apr-27 11:45 048 1 gusting 7 22.2
2017-Apr-27 11:40 027 2 gusting 7 22.2
2017-Apr-27 11:35 020 3 gusting 8 22.2
2017-Apr-27 11:30 019 4 gusting 8 21.7
2017-Apr-27 11:25 021 3 gusting 8 21.7
2017-Apr-27 10:55 047 4 gusting 8 21.1
2017-Apr-27 10:50 038 4 gusting 9 21.1
2017-Apr-27 10:45 027 3 gusting 9 21.1
2017-Apr-27 10:35 014 6 gusting 11 21.1
2017-Apr-27 10:30 031 6 gusting 11 21.1
2017-Apr-27 10:25 038 6 gusting 12 21.1
2017-Apr-27 10:20 038 6 gusting 12 21.1
2017-Apr-27 10:15 035 5 gusting 11 21.1
2017-Apr-27 10:10 011 5 gusting 10 21.7
2017-Apr-27 10:05 012 5 gusting 10 21.7
2017-Apr-27 10:00 034 3 gusting 9 21.7
2017-Apr-27 09:55 043 3 gusting 7 21.7
2017-Apr-27 09:50 035 3 gusting 7 21.7
2017-Apr-27 09:45 018 3 gusting 7 21.7
2017-Apr-27 09:40 012 4 gusting 8 21.7
2017-Apr-27 09:35 006 4 gusting 8 21.1
2017-Apr-27 09:30 349 4 gusting 7 21.1
2017-Apr-27 09:25 334 3 gusting 7 21.1
2017-Apr-27 09:20 330 3 gusting 6 21.1
2017-Apr-27 09:15 340 2 gusting 6 21.1
2017-Apr-27 09:10 341 1 gusting 5 21.1
2017-Apr-27 09:05 340 2 gusting 5 21.1
2017-Apr-27 09:00 357 1 gusting 5 21.1
2017-Apr-27 08:55 004 1 gusting 4 21.1
2017-Apr-27 08:50 357 1 gusting 5 21.1
2017-Apr-27 08:45 357 1 gusting 5 21.1
2017-Apr-27 08:40 354 1 gusting 4 21.1
2017-Apr-27 08:35 352 2 gusting 4 21.1
2017-Apr-27 08:30 353 1 gusting 4 21.7
2017-Apr-27 08:25 343 22.2
2017-Apr-27 08:20 182 21.7
2017-Apr-27 08:15 182 21.1
2017-Apr-27 08:10 182 0 gusting 2 20.6
2017-Apr-27 08:05 182 0 gusting 2 20.6
2017-Apr-27 08:00 182 0 gusting 2 20.0
2017-Apr-27 07:55 182 0 gusting 2 20.0
2017-Apr-27 07:50 182 0 gusting 2 19.4
2017-Apr-27 07:45 182 0 gusting 2 18.9
2017-Apr-27 07:40 181 0 gusting 4 18.3
2017-Apr-27 07:35 184 1 gusting 4 18.3
2017-Apr-27 07:30 193 1 gusting 4 18.3
2017-Apr-27 07:25 193 1 gusting 5 17.8
2017-Apr-27 07:20 177 3 gusting 6 17.8
2017-Apr-27 07:15 171 3 gusting 6 17.8
2017-Apr-27 07:10 172 3 gusting 6 17.8
2017-Apr-27 07:05 167 3 gusting 6 17.8
2017-Apr-27 07:00 164 3 gusting 6 17.8
2017-Apr-27 06:55 170 3 gusting 7 17.2
2017-Apr-27 06:50 172 4 gusting 8 17.2
2017-Apr-27 06:45 173 4 gusting 8 17.2
2017-Apr-27 06:40 174 3 gusting 6 17.2
2017-Apr-27 06:35 173 3 gusting 7 17.2
2017-Apr-27 06:30 169 4 gusting 7 17.2
2017-Apr-27 06:25 167 4 gusting 7 17.2
2017-Apr-27 06:20 171 3 gusting 6 17.2
2017-Apr-27 06:15 165 3 gusting 5 17.2
2017-Apr-27 06:10 165 3 gusting 6 17.2
2017-Apr-27 06:05 168 4 gusting 7 17.2
2017-Apr-27 06:00 169 4 gusting 8 17.2
2017-Apr-27 05:55 171 4 gusting 8 17.2
2017-Apr-27 05:50 166 3 gusting 7 17.2
2017-Apr-27 05:45 166 3 gusting 6 17.2
2017-Apr-27 05:40 173 3 gusting 6 17.2
2017-Apr-27 05:35 176 2 gusting 6 17.2
2017-Apr-27 05:30 178 2 gusting 6 17.2
2017-Apr-27 05:25 176 2 gusting 5 17.2
2017-Apr-27 05:20 173 2 gusting 4 17.2
2017-Apr-27 05:15 172 2 gusting 6 17.2
2017-Apr-27 05:10 171 3 gusting 6 17.2
2017-Apr-27 05:05 172 3 gusting 6 17.2
2017-Apr-27 05:00 171 4 gusting 8 17.2
2017-Apr-27 04:55 163 6 gusting 8 17.2
2017-Apr-27 04:50 155 5 gusting 8 17.2
2017-Apr-27 04:45 161 4 gusting 8 17.2
2017-Apr-27 04:40 170 4 gusting 7 17.2
2017-Apr-27 04:35 160 4 gusting 7 17.2
2017-Apr-27 04:30 150 4 gusting 8 17.2
2017-Apr-27 04:25 148 4 gusting 8 17.2
2017-Apr-27 04:20 155 2 gusting 7 17.2
2017-Apr-27 04:15 170 2 gusting 6 17.8
2017-Apr-27 04:10 173 3 gusting 7 17.2
2017-Apr-27 04:05 174 3 gusting 7 17.2
2017-Apr-27 04:00 178 2 gusting 5 17.8
2017-Apr-27 03:55 167 4 gusting 7 17.8
2017-Apr-27 03:50 164 4 gusting 7 17.8
2017-Apr-27 03:45 172 2 gusting 7 17.8
2017-Apr-27 03:40 155 1 gusting 4 17.8
2017-Apr-27 03:35 143 2 gusting 4 17.8
2017-Apr-27 03:30 175 2 gusting 5 17.8
2017-Apr-27 03:25 184 3 gusting 7 17.8
2017-Apr-27 03:20 165 4 gusting 7 17.8
2017-Apr-27 03:15 157 4 gusting 7 17.8
2017-Apr-27 03:10 160 5 gusting 7 17.8
2017-Apr-27 03:05 167 5 gusting 7 17.8
2017-Apr-27 03:00 169 5 gusting 9 17.8
2017-Apr-27 02:55 166 6 gusting 9 17.8
2017-Apr-27 02:50 164 5 gusting 9 17.8
2017-Apr-27 02:45 168 5 gusting 9 17.8
2017-Apr-27 02:40 171 4 gusting 7 17.8
2017-Apr-27 02:35 175 3 gusting 6 17.8
2017-Apr-27 02:30 179 2 gusting 6 17.8
2017-Apr-27 02:25 176 2 gusting 6 17.8
2017-Apr-27 02:20 173 2 gusting 5 17.8
2017-Apr-27 02:15 172 2 gusting 5 17.8
2017-Apr-27 02:10 172 2 gusting 5 17.8
2017-Apr-27 02:05 172 2 gusting 6 17.8
2017-Apr-27 02:00 173 3 gusting 7 17.8
2017-Apr-27 01:55 170 3 gusting 7 17.8
2017-Apr-27 01:50 162 3 gusting 6 17.8
2017-Apr-27 01:45 162 3 gusting 6 17.8
2017-Apr-27 01:40 168 3 gusting 5 17.8
2017-Apr-27 01:35 172 2 gusting 5 18.3
2017-Apr-27 01:30 174 1 gusting 4 18.3
2017-Apr-27 01:25 174 1 gusting 4 18.3
2017-Apr-27 01:20 174 1 gusting 4 18.3
2017-Apr-27 01:15 173 1 gusting 4 18.3
2017-Apr-27 01:10 173 1 gusting 5 18.3
2017-Apr-27 01:05 167 2 gusting 6 18.3
2017-Apr-27 01:00 162 3 gusting 6 18.3
2017-Apr-27 00:55 162 4 gusting 7 18.3
2017-Apr-27 00:50 172 3 gusting 7 18.3
2017-Apr-27 00:45 171 3 gusting 7 18.3
2017-Apr-27 00:40 156 4 gusting 8 18.3
2017-Apr-27 00:35 147 3 gusting 8 18.9
2017-Apr-27 00:30 141 2 gusting 6 18.9
2017-Apr-27 00:25 167 1 gusting 6 18.9
2017-Apr-27 00:20 173 2 gusting 8 18.9
2017-Apr-27 00:15 155 5 gusting 10 18.9
2017-Apr-27 00:10 151 6 gusting 11 18.9
2017-Apr-27 00:05 154 4 gusting 11 18.9
2017-Apr-27 00:00 174 2 gusting 6 18.9
2017-Apr-26 23:55 194 1 gusting 3 18.9
2017-Apr-26 23:50 194 1 gusting 3 18.9
2017-Apr-26 23:45 196 1 gusting 4 18.9
2017-Apr-26 23:40 201 1 gusting 4 18.9
2017-Apr-26 23:35 202 1 gusting 2 18.9
2017-Apr-26 23:30 202 1 gusting 3 18.9
2017-Apr-26 23:25 203 1 gusting 3 18.9
2017-Apr-26 23:20 203 1 gusting 3 18.9
2017-Apr-26 23:15 203 1 gusting 3 18.9
2017-Apr-26 23:10 203 2 gusting 6 18.9
2017-Apr-26 23:05 196 2 gusting 6 18.9
2017-Apr-26 23:00 188 2 gusting 5 18.9
2017-Apr-26 22:55 189 1 gusting 5 18.9
2017-Apr-26 22:50 191 0 gusting 3 18.3
2017-Apr-26 22:45 192 1 gusting 3 18.3
2017-Apr-26 22:40 178 2 gusting 9 18.3
2017-Apr-26 22:35 169 3 gusting 9 18.3
2017-Apr-26 22:30 168 2 gusting 6 18.3
2017-Apr-26 22:25 168 2 gusting 6 18.3
2017-Apr-26 22:20 179 2 gusting 6 18.3
2017-Apr-26 22:15 285 1 gusting 5 18.3
2017-Apr-26 22:10 316 0 gusting 1 18.3
2017-Apr-26 22:05 316 18.3
2017-Apr-26 22:00 317 0 gusting 2 18.3
2017-Apr-26 21:55 317 1 gusting 3 18.3
2017-Apr-26 21:50 317 1 gusting 3 18.3
2017-Apr-26 21:45 316 0 gusting 2 18.3
2017-Apr-26 21:40 316 0 gusting 2 18.3
2017-Apr-26 21:35 317 0 gusting 2 18.3
2017-Apr-26 21:30 317 1 gusting 4 18.3
2017-Apr-26 21:25 317 2 gusting 4 18.3
2017-Apr-26 21:20 339 1 gusting 4 18.3
2017-Apr-26 21:15 005 1 gusting 4 18.3
2017-Apr-26 21:10 006 18.3
2017-Apr-26 21:05 006 18.3
2017-Apr-26 21:00 006 0 gusting 2 18.3
2017-Apr-26 20:55 354 1 gusting 3 18.3
2017-Apr-26 20:50 346 1 gusting 3 18.3
2017-Apr-26 20:45 343 1 gusting 3 18.3
2017-Apr-26 20:40 338 2 gusting 6 18.3
2017-Apr-26 20:35 338 4 gusting 6 18.3
2017-Apr-26 20:30 342 4 gusting 7 18.9
2017-Apr-26 20:25 346 4 gusting 8 18.9
2017-Apr-26 20:20 002 4 gusting 8 18.9
2017-Apr-26 20:15 013 3 gusting 7 18.9
2017-Apr-26 20:10 008 3 gusting 7 19.4
2017-Apr-26 20:05 004 3 gusting 6 19.4
2017-Apr-26 20:00 006 3 gusting 7 19.4
2017-Apr-26 19:55 012 2 gusting 7 19.4
2017-Apr-26 19:50 017 2 gusting 4 19.4
2017-Apr-26 19:45 016 2 gusting 4 19.4
2017-Apr-26 19:40 015 2 gusting 4 19.4
2017-Apr-26 19:35 013 1 gusting 3 19.4
2017-Apr-26 19:30 013 1 gusting 2 19.4
2017-Apr-26 19:25 013 1 gusting 2 19.4
2017-Apr-26 19:20 013 0 gusting 2 19.4
2017-Apr-26 19:15 349 1 gusting 3 19.4
2017-Apr-26 19:10 322 1 gusting 3 19.4
2017-Apr-26 19:05 301 1 gusting 2 19.4
2017-Apr-26 19:00 300 1 gusting 2 19.4
2017-Apr-26 18:55 300 0 gusting 2 20.0
2017-Apr-26 18:50 299 1 gusting 3 20.0
2017-Apr-26 18:45 299 1 gusting 3 20.0
2017-Apr-26 18:40 299 1 gusting 3 20.6
2017-Apr-26 18:35 299 1 gusting 6 20.6
2017-Apr-26 18:30 303 2 gusting 7 20.6
2017-Apr-26 18:25 305 3 gusting 8 20.6
2017-Apr-26 18:20 303 3 gusting 8 21.1
2017-Apr-26 18:15 307 4 gusting 10 21.1
2017-Apr-26 18:10 307 4 gusting 10 21.1
2017-Apr-26 18:05 302 3 gusting 8 21.7
2017-Apr-26 18:00 303 3 gusting 6 21.7
2017-Apr-26 17:55 302 2 gusting 6 21.7
2017-Apr-26 17:50 291 1 gusting 3 21.7
2017-Apr-26 17:45 290 1 gusting 5 21.7
2017-Apr-26 17:40 290 1 gusting 5 21.7
2017-Apr-26 17:35 284 2 gusting 5 21.7
2017-Apr-26 17:30 289 2 gusting 6 21.7
2017-Apr-26 17:25 300 2 gusting 6 21.7
2017-Apr-26 17:20 296 2 gusting 6 21.7
2017-Apr-26 17:15 302 3 gusting 9 22.2
2017-Apr-26 17:05 320 3 gusting 6 22.2
2017-Apr-26 17:00 316 3 gusting 8 22.2
2017-Apr-26 16:55 315 4 gusting 8 22.2
2017-Apr-26 16:50 326 4 gusting 8 22.2
2017-Apr-26 16:45 320 3 gusting 8 22.8
2017-Apr-26 16:40 327 4 gusting 9 22.8
2017-Apr-26 16:35 336 6 gusting 12 22.8
2017-Apr-26 16:30 336 6 gusting 12 22.8
2017-Apr-26 16:25 343 6 gusting 9 23.3
2017-Apr-26 16:20 352 4 gusting 9 23.3
2017-Apr-26 16:15 009 2 gusting 5 23.3
2017-Apr-26 16:10 003 1 gusting 5 23.3
2017-Apr-26 16:05 348 3 gusting 8 23.3
2017-Apr-26 16:00 003 4 gusting 8 23.3
2017-Apr-26 15:55 021 2 gusting 7 22.8
2017-Apr-26 15:50 006 3 gusting 6 22.8
2017-Apr-26 15:45 002 3 gusting 6 22.8
2017-Apr-26 15:40 355 3 gusting 6 22.8
2017-Apr-26 15:35 351 3 gusting 6 22.8
2017-Apr-26 15:30 001 2 gusting 7 22.8
2017-Apr-26 15:25 009 2 gusting 7 22.8
2017-Apr-26 15:20 012 2 gusting 7 22.8
2017-Apr-26 15:15 022 2 gusting 7 22.8
2017-Apr-26 15:10 003 2 gusting 6 22.8
2017-Apr-26 15:05 328 2 gusting 6 23.3
2017-Apr-26 15:00 338 3 gusting 8 22.8
2017-Apr-26 14:55 357 3 gusting 8 23.3
2017-Apr-26 14:50 005 3 gusting 7 23.3
2017-Apr-26 14:45 001 3 gusting 7 23.3
2017-Apr-26 14:40 353 3 gusting 7 22.8
2017-Apr-26 14:35 346 4 gusting 8 22.8
2017-Apr-26 14:30 343 5 gusting 8 22.8
2017-Apr-26 14:25 339 6 gusting 9 22.8
2017-Apr-26 14:20 353 5 gusting 9 22.8
2017-Apr-26 14:15 004 5 gusting 9 22.8
2017-Apr-26 14:10 350 5 gusting 9 22.8
2017-Apr-26 14:05 348 5 gusting 9 23.3
2017-Apr-26 14:00 004 4 gusting 9 23.3
2017-Apr-26 13:55 004 4 gusting 9 23.3
2017-Apr-26 13:50 346 5 gusting 9 23.3
2017-Apr-26 13:45 341 5 gusting 9 23.3
2017-Apr-26 13:40 335 6 gusting 10 23.3
2017-Apr-26 13:35 327 6 gusting 10 23.3
2017-Apr-26 13:30 339 6 gusting 9 23.3
2017-Apr-26 13:25 354 5 gusting 12 23.3
2017-Apr-26 13:20 347 5 gusting 12 23.3
2017-Apr-26 13:15 338 5 gusting 10 23.3
2017-Apr-26 13:10 334 5 gusting 8 23.3
2017-Apr-26 13:05 336 4 gusting 9 23.3
2017-Apr-26 13:00 347 3 gusting 9 23.9
2017-Apr-26 12:55 344 3 gusting 11 23.9
2017-Apr-26 12:50 336 4 gusting 11 23.9
2017-Apr-26 12:45 353 4 gusting 8 23.3
2017-Apr-26 12:40 003 4 gusting 7 23.3
2017-Apr-26 12:35 335 4 gusting 9 23.3
2017-Apr-26 12:30 332 5 gusting 9 23.3
2017-Apr-26 12:25 353 4 gusting 9 23.3
2017-Apr-26 12:20 001 3 gusting 9 23.3
2017-Apr-26 12:15 350 3 gusting 8 23.3
2017-Apr-26 12:10 348 3 gusting 9 23.3
2017-Apr-26 12:05 350 4 gusting 10 23.3
2017-Apr-26 12:00 354 3 gusting 10 23.3
2017-Apr-26 11:55 356 4 gusting 8 22.8
2017-Apr-26 11:50 004 4 gusting 8 22.8
2017-Apr-26 11:45 355 5 gusting 8 22.8
2017-Apr-26 11:40 342 5 gusting 9 22.8
2017-Apr-26 11:35 344 5 gusting 9 22.8
2017-Apr-26 11:30 339 6 gusting 9 22.8
2017-Apr-26 11:25 334 6 gusting 9 22.8
2017-Apr-26 11:20 338 6 gusting 9 22.8
2017-Apr-26 11:15 347 4 gusting 9 22.8
2017-Apr-26 11:10 009 3 gusting 7 22.8
2017-Apr-26 11:05 350 4 gusting 8 22.2
2017-Apr-26 11:00 330 5 gusting 12 22.2
2017-Apr-26 10:55 333 3 gusting 12 22.2
2017-Apr-26 10:50 338 3 gusting 6 22.2
2017-Apr-26 10:45 340 3 gusting 6 22.2
2017-Apr-26 10:40 341 3 gusting 6 22.2
2017-Apr-26 10:35 340 4 gusting 6 22.2
2017-Apr-26 10:30 343 4 gusting 7 22.2